SCP
0 0 0 0 0 0 0 0 0 0 0 0 0 0 0 0 0 0 0 0 0 0
0 0 0 0 0 0 0 0 0 0 0 0 0 0 0 0 0 0 0 0 0 0
0 0 0 0 0 0 0 0 0 0 0 0 0 0 0 0 0 0 0 0 0 0
0 0 0 0 0 0 0 0 0 0 0 0 0 0 0 0 0 0 0 0 0 0
0 0 0 0 0 0 0 0 0 0 0 0 0 0 0 0 0 0 0 0 0 0
0 0 0 0 0 0 0 0 0 0 0 0 0 0 0 0 0 0 0 0 0 0
0 0 0 0 0 0 0 0 0 0 0 0 0 0 0 0 0 0 0 0 0 0
0 0 0 0 0 0 0 0 0 0 0 0 0 0 0 0 0 0 0 0 0 0
0 0 0 0 0 0 0 0 0 0 0 0 0 0 0 0 0 0 0 0 0 0
0 0 0 0 0 0 0 0 0 0 0 0 0 0 0 0 0 0 0 0 0 0
0 0 0 0 0 0 0 0 0 0 0 0 0 0 0 0 0 0 0 0 0 0
0 0 0 0 0 0 0 0 0 0 0 0 0 0 0 0 0 0 0 0 0 0
0 0 0 0 0 0 0 0 0 0 0 0 0 0 0 0 0 0 0 0 0 0
0 0 0 0 0 0 0 0 0 0 0 0 0 0 0 0 0 0 0 0 0 0
Wind_Speed_500mb
99 96 93 91 90 84 83 80 71 73 71 68 67 65 65 67 67 67 67 67 70 67
97 98 95 85 83 88 80 77 75 67 61 62 62 63 63 63 60 60 60 62 56 53
93 89 87 84 86 82 78 75 70 63 59 58 59 58 57 58 56 56 54 47 49 54
91 91 89 88 83 77 73 72 67 60 58 56 55 55 55 55 52 51 47 52 56 57
91 90 90 89 85 79 73 69 63 61 59 57 56 56 57 54 49 53 54 53 55 55
90 89 89 82 78 78 74 71 67 64 63 61 59 57 54 51 55 56 58 51 57 55
94 94 87 78 77 76 73 70 69 67 65 63 61 58 57 57 58 56 55 56 58 59
84 82 76 75 72 69 71 71 69 67 66 65 64 61 58 56 57 56 56 55 55 56
70 71 73 72 71 70 69 68 68 69 67 62 61 60 56 55 52 53 53 56 54 54
63 67 70 69 70 69 68 66 64 62 60 59 60 60 58 57 56 54 47 44 44 47
59 61 61 62 62 61 60 60 59 58 58 59 57 51 44 42 41 40 41 41 41 40
58 57 58 57 56 56 56 56 55 54 53 50 47 45 42 39 39 40 39 37 33 29
56 54 54 54 54 53 53 52 52 51 48 46 46 44 42 37 36 37 33 31 27 24
62 60 57 55 54 55 55 55 53 51 49 47 45 43 39 37 35 31 29 27 24 20
Wind_Direction_500mb
236 237 238 240 243 246 246 247 249 249 250 253 254 255 257 259 261 260 262 262 264 268
236 237 238 240 242 244 248 249 250 252 251 251 252 253 254 256 256 257 258 261 265 269
236 238 240 240 242 244 247 249 249 250 249 248 249 248 248 250 251 253 257 261 265 266
235 237 237 239 241 243 245 247 247 246 246 247 247 244 244 246 248 250 255 258 263 266
238 238 237 238 240 242 244 245 245 244 244 244 243 241 241 242 246 252 255 259 265 269
237 236 236 239 242 242 242 243 244 244 242 242 242 241 240 244 245 248 254 256 258 264
234 234 239 243 240 239 238 240 240 240 240 240 241 241 239 244 247 249 254 254 258 261
234 236 236 235 235 234 234 235 236 237 238 238 242 243 244 243 246 246 249 254 258 257
231 230 230 231 230 230 231 232 234 235 238 238 240 240 237 237 238 241 244 247 249 255
228 227 227 227 227 228 229 231 232 233 235 236 237 238 240 240 240 241 240 244 251 253
223 223 224 225 226 226 227 228 230 232 233 234 235 237 233 228 229 234 238 240 243 248
217 216 216 218 220 222 224 224 225 227 228 228 226 225 228 231 230 232 234 235 238 247
210 210 213 215 217 220 222 223 223 221 220 220 223 227 233 235 229 228 229 230 230 233
211 212 213 215 218 220 220 219 219 219 221 224 227 229 231 226 218 220 224 227 230 237
Wind_Speed_850mb
99 96 93 91 90 84 83 80 71 73 71 68 67 65 65 67 67 67 67 67 70 67
97 98 95 85 83 88 80 77 75 67 61 62 62 63 63 63 60 60 60 62 56 53
93 89 87 84 86 82 78 75 70 63 59 58 59 58 57 58 56 56 54 47 49 54
91 91 89 88 83 77 73 72 67 60 58 56 55 55 55 55 52 51 47 52 56 57
91 90 90 89 85 79 73 69 63 61 59 57 56 56 57 54 49 53 54 53 55 55
90 89 89 82 78 78 74 71 67 64 63 61 59 57 54 51 55 56 58 51 57 55
94 94 87 78 77 76 73 70 69 67 65 63 61 58 57 57 58 56 55 56 58 59
84 82 76 75 72 69 71 71 69 67 66 65 64 61 58 56 57 56 56 55 55 56
70 71 73 72 71 70 69 68 68 69 67 62 61 60 56 55 52 53 53 56 54 54
63 67 70 69 70 69 68 66 64 62 60 59 60 60 58 57 56 54 47 44 44 47
59 61 61 62 62 61 60 60 59 58 58 59 57 51 44 42 41 40 41 41 41 40
58 57 58 57 56 56 56 56 55 54 53 50 47 45 42 39 39 40 39 37 33 29
56 54 54 54 54 53 53 52 52 51 48 46 46 44 42 37 36 37 33 31 27 24
62 60 57 55 54 55 55 55 53 51 49 47 45 43 39 37 35 31 29 27 24 20
Wind_Direction_850mb
236 237 238 240 243 246 246 247 249 249 250 253 254 255 257 259 261 260 262 262 264 268
236 237 238 240 242 244 248 249 250 252 251 251 252 253 254 256 256 257 258 261 265 269
236 238 240 240 242 244 247 249 249 250 249 248 249 248 248 250 251 253 257 261 265 266
235 237 237 239 241 243 245 247 247 246 246 247 247 244 244 246 248 250 255 258 263 266
238 238 237 238 240 242 244 245 245 244 244 244 243 241 241 242 246 252 255 259 265 269
237 236 236 239 242 242 242 243 244 244 242 242 242 241 240 244 245 248 254 256 258 264
234 234 239 243 240 239 238 240 240 240 240 240 241 241 239 244 247 249 254 254 258 261
234 236 236 235 235 234 234 235 236 237 238 238 242 243 244 243 246 246 249 254 258 257
231 230 230 231 230 230 231 232 234 235 238 238 240 240 237 237 238 241 244 247 249 255
228 227 227 227 227 228 229 231 232 233 235 236 237 238 240 240 240 241 240 244 251 253
223 223 224 225 226 226 227 228 230 232 233 234 235 237 233 228 229 234 238 240 243 248
217 216 216 218 220 222 224 224 225 227 228 228 226 225 228 231 230 232 234 235 238 247
210 210 213 215 217 220 222 223 223 221 220 220 223 227 233 235 229 228 229 230 230 233
211 212 213 215 218 220 220 219 219 219 221 224 227 229 231 226 218 220 224 227 230 237